{"data":{"norad_id":53139,"epoch":"2026-09-19T18:47:17.214432Z","epoch_age_seconds":134249,"freshness":"FRESH","line1":"1 53139U 22083H   26262.78283813  .00001000  00000+0  40746-4 0  9999","line2":"2 53139  53.1615  12.7481 0001080  78.6891 281.4233 15.34391509230654","mean_motion":15.34391509,"eccentricity":0.000108,"inclination_deg":53.1615,"raan_deg":12.7481,"arg_perigee_deg":78.6891,"mean_anomaly_deg":281.4233,"bstar":4.0746e-5,"rev_number":23065,"period_min":93.848277415096,"perigee_km":461.98966389333,"apogee_km":463.46729083644,"semimajor_km":6840.8654773649,"source":"CELESTRAK","updated_at":"2026-09-20T09:00:40.179638Z"}}